SLOA4: Illinois River nr Siloam Springs AR

Data processed at Sat Dec 09 2017 23:18


All information presented herein is the property of the government of the United States of America and may be revised or deleted at any time without prior notice.
Dissemination of this information without the expressed written consent of the Public Affairs Office, Tulsa District U.S. Army Corps of Engineers is strictly prohibited.
These data are gathered electronically and, as presented, have not undergone any form of quality control. These data are not guaranteed to be valid or correct.
Go to home page.
Go to station list.

Upstream stations:

Downstream station:
Previous Day
Next Day
Current Day
    
SHEF ID:       SLOA4     Illinois River South of Siloam S
STATION TYPE:  

                STAGE  RIV-FLOW  BAT-LOAD
                   ft       cfs      volt
              Ccp-Rev   Ccp-Rev   Ccp-Rev
(US/Central)
12/07 00:00      2.48       182     12.30
12/07 01:00      2.49       185     12.24
12/07 02:00      2.48       182     12.24
12/07 03:00      2.48       182     12.24
12/07 04:00      2.49       185     12.19
12/07 05:00      2.47       179     12.19
12/07 06:00      2.46       176     12.13
12/07 07:00      2.47       179     12.13
12/07 08:00      2.47       179     12.07
12/07 09:00      2.48       182     12.60
12/07 10:00      2.47       179     13.83
12/07 11:00      2.48       182     14.24
12/07 12:00      2.48       182     14.35
12/07 13:00      2.48       182     14.41
12/07 14:00      2.49       185     14.35
12/07 15:00      2.49       185     14.24
12/07 16:00      2.49       185     14.18
12/07 17:00      2.48       182     14.00
12/07 18:00      2.49       185     13.12
12/07 19:00      2.47       179     12.60
12/07 20:00      2.47       179     12.36
12/07 21:00      2.47       179     12.36
12/07 22:00      2.44       171     12.30
12/07 23:00      2.45       174     12.24